[TLELIST] Archives

 

[list_settings.list_name] Current TLEs

January 19th 2012 PDT

HST 1 20580U 90037B 12019.25301921 .00001548 00000-0 10243-3 0 9250 2 20580 028.4706 044.4221 0003386 255.5194 104.4972 15.02106640992161 ISS (ZARYA) 1 25544U 98067A 12019.43992292 .00013049 00000-0 17018-3 0 8506 2 25544 051.6405 153.2633 0021785 298.2316 169.3750 15.58811515754669 CXO 1 25867U 99040B 12020.83333333 -.00001071 00000-0 00000+0 0 6912 2 25867 071.1678 015.8235 8740812 277.7526 358.9211 00.37802149 8595 ____________________________________________________________________ These 2-Line ...Continue Reading

[list_settings.list_name] Current TLEs

January 18th 2012 PDT

HST 1 20580U 90037B 12016.26310801 .00001597 00000-0 10612-3 0 9248 2 20580 028.4703 063.9736 0003429 224.5893 135.4409 15.02098782991711 ISS (ZARYA) 1 25544U 98067A 12018.21347495 .00001805 00000-0 29372-4 0 8436 2 25544 051.6369 159.4258 0021702 294.8630 125.7551 15.58779618754470 CXO 1 25867U 99040B 12018.16666667 -.00001160 00000-0 00000+0 0 6902 2 25867 071.1447 016.0253 8739652 277.7222 356.0060 00.37807313 8583 ____________________________________________________________________ These 2-Line ...Continue Reading

[list_settings.list_name] Current TLEs

January 17th 2012 PDT

HST 1 20580U 90037B 12016.26310801 .00001597 00000-0 10612-3 0 9248 2 20580 028.4703 063.9736 0003429 224.5893 135.4409 15.02098782991711 ISS (ZARYA) 1 25544U 98067A 12017.10822917 .00007627 00000-0 10254-3 0 8368 2 25544 051.6431 164.9673 0022107 289.3685 045.0031 15.58744570754297 CXO 1 25867U 99040B 12018.16666667 -.00001160 00000-0 00000+0 0 6902 2 25867 071.1447 016.0253 8739652 277.7222 356.0060 00.37807313 8583 ____________________________________________________________________ These 2-Line ...Continue Reading

[list_settings.list_name] Current TLEs

January 17th 2012 PDT

HST 1 20580U 90037B 12016.26310801 .00001597 00000-0 10612-3 0 9248 2 20580 028.4703 063.9736 0003429 224.5893 135.4409 15.02098782991711 ISS (ZARYA) 1 25544U 98067A 12016.42507582 .00013761 00000-0 17968-3 0 8309 2 25544 051.6423 168.3956 0021881 286.2258 172.1262 15.58720276754194 CXO 1 25867U 99040B 12018.16666667 -.00001160 00000-0 00000+0 0 6902 2 25867 071.1447 016.0253 8739652 277.7222 356.0060 00.37807313 8583 ____________________________________________________________________ These 2-Line ...Continue Reading

[list_settings.list_name] Current TLEs

January 16th 2012 PDT

HST 1 20580U 90037B 12013.33966485 .00001544 00000-0 10224-3 0 9238 2 20580 028.4703 083.0867 0003380 194.0907 166.1770 15.02090662991274 ISS (ZARYA) 1 25544U 98067A 12015.39747968 .00014531 00000-0 18955-3 0 8244 2 25544 051.6425 173.5548 0021831 282.4188 165.9075 15.58693097754031 CXO 1 25867U 99040B 12015.54166667 -.00000979 00000-0 00000+0 0 6891 2 25867 071.1188 016.2406 8735985 277.6960 358.7349 00.37804312 8574 ____________________________________________________________________ These 2-Line ...Continue Reading

[list_settings.list_name] Current TLEs

January 15th 2012 PDT

HST 1 20580U 90037B 12013.33966485 .00001544 00000-0 10224-3 0 9238 2 20580 028.4703 083.0867 0003380 194.0907 166.1770 15.02090662991274 ISS (ZARYA) 1 25544U 98067A 12014.42640257 .00011815 00000-0 15558-3 0 8170 2 25544 051.6428 178.4276 0021607 280.1549 115.6099 15.58671786753884 CXO 1 25867U 99040B 12015.54166667 -.00000979 00000-0 00000+0 0 6891 2 25867 071.1188 016.2406 8735985 277.6960 358.7349 00.37804312 8574 ____________________________________________________________________ These 2-Line ...Continue Reading

[list_settings.list_name] Current TLEs

January 14th 2012 PDT

HST 1 20580U 90037B 12013.33966485 .00001544 00000-0 10224-3 0 9238 2 20580 028.4703 083.0867 0003380 194.0907 166.1770 15.02090662991274 ISS (ZARYA) 1 25544U 98067A 12013.40921406 .00013194 00000-0 16949-3 0 8105 2 25544 051.6419 183.5316 0023565 276.9178 166.9816 15.59153602753724 CXO 1 25867U 99040B 12012.91666667 -.00000794 00000-0 00000+0 0 6888 2 25867 071.0930 016.4102 8732633 277.7086 001.3538 00.37799906 8562 ____________________________________________________________________ These 2-Line ...Continue Reading

[list_settings.list_name] Current TLEs

January 13th 2012 PDT

HST 1 20580U 90037B 12010.70633230 .00000170 00000-0 00000+0 0 9225 2 20580 028.4699 100.3063 0003433 159.0818 333.3663 15.02064828990879 ISS (ZARYA) 1 25544U 98067A 12012.23671296 .00013535 00000-0 17390-3 0 8025 2 25544 051.6422 189.4209 0023508 272.1321 066.2657 15.59123108753531 CXO 1 25867U 99040B 12012.91666667 -.00000794 00000-0 00000+0 0 6888 2 25867 071.0930 016.4102 8732633 277.7086 001.3538 00.37799906 8562 ____________________________________________________________________ These 2-Line ...Continue Reading

[list_settings.list_name] Current TLEs

January 12th 2012 PDT

HST 1 20580U 90037B 12010.70633230 .00000170 00000-0 00000+0 0 9225 2 20580 028.4699 100.3063 0003433 159.0818 333.3663 15.02064828990879 ISS (ZARYA) 1 25544U 98067A 12011.35515759 .00012831 00000-0 16540-3 0 7953 2 25544 051.6418 193.8483 0023503 268.8749 158.2290 15.59095662753404 CXO 1 25867U 99040B 12012.91666667 -.00000794 00000-0 00000+0 0 6888 2 25867 071.0930 016.4102 8732633 277.7086 001.3538 00.37799906 8562 ____________________________________________________________________ These 2-Line ...Continue Reading

[list_settings.list_name] Current TLEs

January 11th 2012 PDT

HST 1 20580U 90037B 12009.68524937 .00001904 00000-0 12898-3 0 9210 2 20580 028.4692 106.9879 0003601 159.0636 201.0108 15.02079972990729 ISS (ZARYA) 1 25544U 98067A 12010.24894676 .00012000 00000-0 15531-3 0 7898 2 25544 051.6419 199.4038 0023586 264.3293 069.8106 15.59062519753227 CXO 1 25867U 99040B 12007.58333333 -.00001034 00000-0 00000+0 0 6873 2 25867 071.0292 016.9175 8732987 277.6754 355.1947 00.37800482 8545 ____________________________________________________________________ These 2-Line ...Continue Reading
  • This mailing list is a public mailing list - anyone may join or leave, at any time.
  • This mailing list is announce-only.

International Space Station (ISS) / Hubble Space Telescope (HST) / Chandra X-Ray Observatory Orbital Data via EMAIL

Privacy Policy:

Private list